{"data":{"norad_id":60732,"epoch":"2026-05-25T02:47:06.099648Z","epoch_age_seconds":64263,"freshness":"FRESH","line1":"1 60732U 24152N   26145.11604282  .00000221  00000+0  66844-5 0  9991","line2":"2 60732  53.1602  99.1235 0001051 102.0629 258.0507 15.69707253100848","mean_motion":15.69707253,"eccentricity":0.0001051,"inclination_deg":53.1602,"raan_deg":99.1235,"arg_perigee_deg":102.0629,"mean_anomaly_deg":258.0507,"bstar":6.6844e-6,"rev_number":10084,"period_min":91.736850756591,"perigee_km":359.0264609874,"apogee_km":360.4427616001,"semimajor_km":6737.8716112937,"source":"CELESTRAK","updated_at":"2026-05-25T13:38:19.310060Z"}}